Location: Chochol
(49.7771°N, 14.9780°E)
Time: 18:35:04
(UTC+00:00)

SL-8 Rocket - Pass Details

Date: 09 April 2020
Orbit: 957 x 991 km, 82.9° (Epoch: 04 June)

Event Time Altitude Azimuth Distance (km) Brightness Sun altitude
Rises 19:21:04 0° 350° (N) 3,710 7.7 -15.1°
Reaches altitude 10° 19:23:36 10° 352° (N) 2,761 6.9 -15.4°
Maximum altitude 19:29:58 81° 81° (E) 1,009 4.0 -16.3°
Enters shadow 19:35:17 15° 168° (SSE) 2,373 5.6 -17.0°
